When you browse on this site, cookies collect data to enhance your experience and personalize the content and advertising you see.
Visit our Privacy Policy to learn more. By continuing to use the site, you agree to this use of cookies and data.
  • In Switzerland
  • List of Countries
  • For 7 days
  • Water Temperature
  • Satellite Maps
  • Weather Map
  • Weather Widgets
  • user-avatar
    Login

    Hourly Weather Gold Coast

    Today, 20 May, Monday

    Time Temperature Precipitation Wind Pressure Humidity
    00:00 +18°C° 0.2 mm 3 mps 766 mmHg 90%
    01:00 +18°C° 0.2 mm 3 mps 766 mmHg 91%
    02:00 +18°C° 0.4 mm 3 mps 766 mmHg 92%
    03:00 +18°C° 0.4 mm 3 mps 766 mmHg 92%
    04:00 +18°C° 0 mm 2 mps 765 mmHg 93%
    05:00 +18°C° 0.3 mm 2 mps 766 mmHg 93%
    06:00 +18°C° 0.3 mm 2 mps 766 mmHg 93%
    07:00 +17°C° 0.3 mm 3 mps 766 mmHg 93%
    08:00 +19°C° 0.3 mm 3 mps 766 mmHg 88%
    09:00 +20°C° 0.3 mm 3 mps 766 mmHg 84%
    10:00 +21°C° 0 mm 3 mps 766 mmHg 78%
    11:00 +21°C° 0.7 mm 3 mps 766 mmHg 82%
    12:00 +21°C° 0.7 mm 3 mps 765 mmHg 85%
    13:00 +20°C° 0.7 mm 3 mps 765 mmHg 89%
    14:00 +20°C° 0.4 mm 3 mps 765 mmHg 89%
    15:00 +20°C° 0.4 mm 3 mps 764 mmHg 89%
    16:00 +20°C° 0.4 mm 2 mps 764 mmHg 89%
    17:00 +19°C° 0.1 mm 2 mps 765 mmHg 90%
    18:00 +19°C° 0.1 mm 2 mps 765 mmHg 90%
    19:00 +18°C° 0.1 mm 2 mps 765 mmHg 90%
    20:00 +18°C° 0 mm 2 mps 765 mmHg 90%
    21:00 +18°C° 0 mm 2 mps 765 mmHg 90%
    22:00 +18°C° 0 mm 1 mps 765 mmHg 90%
    23:00 +18°C° 0 mm 1 mps 765 mmHg 91%

    Tomorrow, 21 May, Tuesday

    Time Temperature Precipitation Wind Pressure Humidity
    00:00 +18°C° 0 mm 1 mps 765 mmHg 91%
    01:00 +18°C° 0 mm 1 mps 765 mmHg 92%
    02:00 +17°C° 0 mm 2 mps 765 mmHg 92%
    03:00 +16°C° 0 mm 2 mps 765 mmHg 92%
    04:00 +16°C° 0 mm 2 mps 765 mmHg 93%
    05:00 +16°C° 0 mm 2 mps 765 mmHg 93%
    06:00 +16°C° 0 mm 2 mps 765 mmHg 93%
    07:00 +16°C° 0 mm 2 mps 765 mmHg 92%
    08:00 +19°C° 0 mm 2 mps 766 mmHg 83%
    09:00 +21°C° 0 mm 2 mps 766 mmHg 74%
    10:00 +24°C° 0 mm 2 mps 766 mmHg 65%
    11:00 +24°C° 0 mm 2 mps 766 mmHg 63%
    12:00 +25°C° 0 mm 2 mps 765 mmHg 61%
    13:00 +25°C° 0 mm 3 mps 764 mmHg 59%
    14:00 +24°C° 0 mm 3 mps 764 mmHg 62%
    15:00 +24°C° 0 mm 3 mps 764 mmHg 66%
    16:00 +22°C° 0 mm 3 mps 764 mmHg 69%
    17:00 +21°C° 0 mm 2 mps 764 mmHg 74%
    18:00 +20°C° 0 mm 2 mps 765 mmHg 80%
    19:00 +18°C° 0 mm 2 mps 765 mmHg 85%
    20:00 +18°C° 0 mm 2 mps 766 mmHg 86%
    21:00 +18°C° 0 mm 2 mps 766 mmHg 87%
    22:00 +18°C° 0 mm 1 mps 766 mmHg 87%
    23:00 +18°C° 0 mm 1 mps 766 mmHg 88%

    Day after tomorrow, 22 May, Wednesday

    Time Temperature Precipitation Wind Pressure Humidity
    00:00 +18°C° 0 mm 1 mps 766 mmHg 89%
    01:00 +18°C° 0 mm 1 mps 766 mmHg 90%
    02:00 +16°C° 0 mm 2 mps 766 mmHg 90%
    03:00 +16°C° 0 mm 2 mps 766 mmHg 91%
    04:00 +16°C° 0 mm 2 mps 766 mmHg 91%
    05:00 +16°C° 0 mm 2 mps 766 mmHg 91%
    06:00 +16°C° 0 mm 2 mps 766 mmHg 90%
    07:00 +16°C° 0 mm 2 mps 766 mmHg 90%
    08:00 +18°C° 0 mm 2 mps 767 mmHg 80%
    09:00 +21°C° 0 mm 3 mps 767 mmHg 70%
    10:00 +24°C° 0 mm 3 mps 767 mmHg 61%
    11:00 +25°C° 0 mm 3 mps 766 mmHg 58%
    12:00 +25°C° 0 mm 3 mps 766 mmHg 56%
    13:00 +26°C° 0 mm 4 mps 765 mmHg 53%
    14:00 +25°C° 0 mm 4 mps 765 mmHg 57%
    15:00 +23°C° 0 mm 4 mps 765 mmHg 62%
    16:00 +22°C° 0 mm 4 mps 765 mmHg 66%
    17:00 +21°C° 0 mm 4 mps 765 mmHg 72%
    18:00 +20°C° 0 mm 3 mps 766 mmHg 78%
    19:00 +18°C° 0 mm 3 mps 766 mmHg 85%
    20:00 +18°C° 0 mm 3 mps 766 mmHg 85%
    21:00 +18°C° 0 mm 3 mps 767 mmHg 86%
    22:00 +18°C° 0 mm 2 mps 767 mmHg 87%
    23:00 +17°C° 0 mm 2 mps 766 mmHg 88%

    23 May, Thursday

    Time Temperature Precipitation Wind Pressure Humidity
    00:00 +17°C° 0 mm 2 mps 766 mmHg 88%
    01:00 +17°C° 0 mm 2 mps 766 mmHg 89%
    02:00 +17°C° 0 mm 3 mps 766 mmHg 90%
    03:00 +17°C° 0 mm 3 mps 766 mmHg 90%
    04:00 +16°C° 0 mm 3 mps 765 mmHg 91%
    05:00 +16°C° 0 mm 3 mps 766 mmHg 92%
    06:00 +16°C° 0 mm 3 mps 766 mmHg 92%
    07:00 +16°C° 0 mm 3 mps 767 mmHg 93%
    08:00 +18°C° 0.1 mm 3 mps 767 mmHg 85%
    09:00 +20°C° 0.1 mm 3 mps 767 mmHg 77%
    10:00 +22°C° 0.1 mm 3 mps 767 mmHg 70%
    11:00 +22°C° 0.2 mm 3 mps 766 mmHg 69%
    12:00 +22°C° 0.2 mm 3 mps 765 mmHg 68%
    13:00 +22°C° 0.2 mm 3 mps 765 mmHg 68%
    14:00 +22°C° 0 mm 3 mps 765 mmHg 69%
    15:00 +21°C° 0 mm 3 mps 764 mmHg 71%
    16:00 +21°C° 0 mm 3 mps 764 mmHg 73%
    17:00 +20°C° 0 mm 3 mps 765 mmHg 76%
    18:00 +19°C° 0 mm 3 mps 765 mmHg 80%
    19:00 +18°C° 0 mm 2 mps 765 mmHg 83%
    20:00 +17°C° 0 mm 2 mps 766 mmHg 84%
    21:00 +17°C° 0 mm 2 mps 766 mmHg 85%
    22:00 +17°C° 0 mm 2 mps 766 mmHg 86%
    23:00 +17°C° 0 mm 2 mps 766 mmHg 87%

    24 May, Friday

    Time Temperature Precipitation Wind Pressure Humidity
    00:00 +16°C° 0 mm 2 mps 765 mmHg 88%
    01:00 +16°C° 0 mm 2 mps 765 mmHg 89%
    02:00 +16°C° 0 mm 2 mps 764 mmHg 90%
    03:00 +16°C° 0 mm 3 mps 764 mmHg 91%
    04:00 +14°C° 0 mm 3 mps 764 mmHg 91%
    05:00 +14°C° 0 mm 3 mps 764 mmHg 92%
    06:00 +14°C° 0 mm 3 mps 765 mmHg 92%
    07:00 +14°C° 0 mm 3 mps 765 mmHg 92%
    08:00 +18°C° 0 mm 3 mps 765 mmHg 82%
    09:00 +20°C° 0 mm 3 mps 765 mmHg 73%
    10:00 +22°C° 0 mm 3 mps 765 mmHg 64%
    11:00 +24°C° 0 mm 3 mps 764 mmHg 60%
    12:00 +25°C° 0 mm 3 mps 763 mmHg 55%
    13:00 +25°C° 0 mm 3 mps 763 mmHg 51%
    14:00 +25°C° 0 mm 3 mps 762 mmHg 55%
    15:00 +24°C° 0 mm 3 mps 762 mmHg 59%
    16:00 +22°C° 0 mm 3 mps 762 mmHg 64%
    17:00 +21°C° 0 mm 3 mps 763 mmHg 71%
    18:00 +19°C° 0 mm 3 mps 763 mmHg 78%
    19:00 +18°C° 0 mm 3 mps 764 mmHg 86%
    20:00 +17°C° 0 mm 2 mps 764 mmHg 87%
    21:00 +17°C° 0 mm 2 mps 764 mmHg 88%
    22:00 +17°C° 0 mm 2 mps 764 mmHg 90%
    23:00 +16°C° 0 mm 2 mps 763 mmHg 91%

    25 May, Saturday

    Time Temperature Precipitation Wind Pressure Humidity
    00:00 +16°C° 0 mm 2 mps 763 mmHg 92%
    01:00 +16°C° 0 mm 2 mps 763 mmHg 93%
    02:00 +16°C° 0 mm 2 mps 763 mmHg 92%
    03:00 +15°C° 0 mm 2 mps 763 mmHg 92%
    04:00 +15°C° 0 mm 2 mps 762 mmHg 92%
    05:00 +15°C° 0 mm 2 mps 763 mmHg 90%
    06:00 +15°C° 0 mm 2 mps 763 mmHg 89%
    07:00 +16°C° 0 mm 2 mps 763 mmHg 88%
    08:00 +18°C° 0 mm 2 mps 763 mmHg 79%
    09:00 +20°C° 0 mm 2 mps 763 mmHg 70%
    10:00 +24°C° 0 mm 1 mps 763 mmHg 61%
    11:00 +24°C° 0 mm 2 mps 762 mmHg 57%
    12:00 +25°C° 0 mm 2 mps 762 mmHg 53%
    13:00 +26°C° 0 mm 2 mps 761 mmHg 49%
    14:00 +25°C° 0 mm 2 mps 761 mmHg 54%
    15:00 +24°C° 0 mm 2 mps 761 mmHg 59%
    16:00 +23°C° 0 mm 2 mps 761 mmHg 64%
    17:00 +21°C° 0 mm 2 mps 761 mmHg 73%
    18:00 +19°C° 0 mm 2 mps 761 mmHg 81%
    19:00 +18°C° 0 mm 2 mps 762 mmHg 89%
    20:00 +18°C° 0 mm 1 mps 762 mmHg 90%
    21:00 +18°C° 0 mm 1 mps 762 mmHg 91%
    22:00 +18°C° 0 mm 1 mps 762 mmHg 92%
    23:00 +18°C° 0 mm 1 mps 762 mmHg 93%
    Show more